Voltar ao catálogo

FENGYUN 1C DEB

LostSSO
NORAD 37401·DEBRIS·🇨🇳 China

Lançado May 10, 1999 de Taiyuan Satellite Launch Center

Loading…

Próximas Passagens (próximas 24 horas)

TLE

ObsoletoSource: Space-Track

Época: Jul 26, 2022, 08:15 UTC

1 37401U 99025EFT 22207.34439524  .00000417  00000-0  15366-3 0  9993
2 37401  98.5447 247.4398 0176673 271.1231  86.9716 14.29687714677813

Acompanhe FENGYUN 1C DEB em tempo real com AllMySat

Download on the App Store